STARLINK-1903, 46764

Orbit data source: Space-Track

STARLINK-1903, 46764 is a payload satellite owned by SpaceX/Seattle (US) in LEO that was launched on Sat, 24 Oct 2020 UTC via an FALCON 9 launch vehicle from the Air Force Eastern Test Range (AFETR). Payload-class satellites include a variety of spacecraft equipped with specific instruments for various scientific and technological missions. These include communications satellites like Starlink; space stations such as the ISS; scientific satellites like the Hubble; Earth observation satellites from companies like Planet Labs, Umbra, and HawkEye 360; GPS; miniature CubeSats for education and research; and military/defense satellites.

Loading next visibility...
Identifier
46764, 2020-074AB
Orbit
LEO
Last TLE update
13 hours ago
Origin
Manufacturer
SpaceX/Seattle
Mission
Partially operational Commercial Communications
Bus & Motor
STARLINK, Unknown motor
Mass
260 kg wet, ~248 kg dry
Launch date (UTC)
2020-10-24 (5 years ago)
Launch vehicle
FALCON 9
Launch site
Air Force Eastern Test Range (AFETR)
Object type
Payload
Rocket body
Debris
Shape & HBR
Box + 1 Pan, 8.86 m
Radar Cross Section
13.562 m², Large (>1 m²)

Expand to show TLE details & history

TLE from 13 hours ago
0 STARLINK-1903
1 46764U 20074AB  25128.73454424  .00053374  00000-0  90244-3 0  9995
2 46764  53.0302 234.4716 0002697 359.5007   0.5998 15.51089355250956
Epoch: 2025-05-08T17:37Z
Definitive object data (Epoch: 2025-05-08T17:37:44.622Z)
Latitude
-0.00001°
Longitude
103.23488°
Altitude
412.606 km
Speed
7.666 km/s
True Right ascension
15h 37m 53s
True Declination
0° 00' 00"
Sunlit
Object was in full shadow at TLE epoch
Visualization TLE readout
Latitude
40.03488°
Longitude
-118.32048°
Altitude
418.019 km
Speed
7.665 km/s
Apparent Right ascension
01h 44m 49s
Apparent Declination
1° 37' 38"
Sunlit
Object is in daylight
Visualization observer readout
Local Sidereal Time
14:41:27
Azimuth
20.793° NNE
Elevation
-46.484°
Doppler factor
1
Orbital elements
Apogee altitude
415.656 km
Perigee altitude
411.992 km
Semi-major axis
6,791.961 km
Eccentricity
0.0002697
Inclination
53.0302°
RAAN
234.4716°
Arg. of periapsis
359.5007°
True anomaly
0.60012°
Mean anomaly
0.5998°
Eccentric anomaly
0.59996°
Mean motion
3.87749 °/min
BSTAR
0.00090244
Orbital period
92.84 mins
Loading maneuver chart data...
Loading SW <> Apogee altitude chart data...

STARLINK-1903 Visibility forecast

Observer location: undefined°, undefined°

Span
Click to sort rows by Start time (UTC) header in descending order
Start Az.
Max El. time (UTC)
Max El. Az.
Max El.
End time (UTC)
End Az.
5 mins2025-05-09 09:15:35.905Z199.592° SSW2025-05-09 09:17:35.905Z157.069° SSE30.195°2025-05-09 09:20:35.905Z68.637° E
4 mins2025-05-09 15:45:35.905Z338.466° N2025-05-09 15:47:35.905Z39.447° NE28.264°2025-05-09 15:49:35.905Z90.577° ESE
4 mins2025-05-09 17:22:35.905Z264.213° W2025-05-09 17:23:35.905Z237.414° WSW22.716°2025-05-09 17:26:35.905Z171.566° S
|